• MPC Preparation (Info)

  • MPEC 2016-L82 : 2016 LH10

    The following Minor Planet Electronic Circular may be linked-to from your own Web pages, but must not otherwise be redistributed electronically.

    A form allowing access to any MPEC is at the bottom of this page.


    Read MPEC 2016-L81 Read MPEC 2016-L83


    M.P.E.C. 2016-L82                                Issued 2016 June  9, 15:13 UT
    
         The Minor Planet Electronic Circulars contain information on unusual
             minor planets and routine data on comets.  They are published
        on behalf of Division F of the International Astronomical Union by the
              Minor Planet Center, Smithsonian Astrophysical Observatory,
                              Cambridge, MA 02138, U.S.A.
    
                 Prepared using the Tamkin Foundation Computer Network
    
                                  MPC@CFA.HARVARD.EDU
                URL https://www.minorplanetcenter.net/    ISSN 1523-6714
    
                                       2016 LH10
    
    Observations:
         K16L10H* C2016 06 07.46379 16 47 22.681-01 21 00.82         21.4 wLEL082F51
         K16L10H  C2016 06 07.47489 16 47 20.679-01 19 49.05         22.0 wLEL082F51
         K16L10H  C2016 06 07.48604 16 47 18.675-01 18 36.30         22.1 wLEL082F51
         K16L10H _C2016 06 08.45007316 44 52.200+00 30 20.52         20.8 RtEL082568
         K16L10H _C2016 06 08.45134016 44 51.954+00 30 29.37         20.7 RtEL082568
         K16L10H _C2016 06 08.45260516 44 51.706+00 30 38.34         19.6 RtEL082568
         K16L10H KC2016 06 09.39223 16 42 13.86 +02 25 11.6                oEL082291
         K16L10H KC2016 06 09.39405 16 42 13.52 +02 25 27.0                oEL082291
         K16L10H KC2016 06 09.39585 16 42 13.17 +02 25 39.1                oEL082291
    
    Observer details:
    291 LPL/Spacewatch II.  Observer M. T. Read.  1.8-m f/2.7 reflector + CCD.
    568 Mauna Kea.  Observers R. J. Wainscoat, L. Wells.  Measurers M. Micheli,
        R. J. Wainscoat.  3.6-m Canada-France-Hawaii Telescope + CCD.
    F51 Pan-STARRS 1, Haleakala.  Observers B. Gibson, T. Goggia, N. Primak,
        A. Schultz, M. Willman.  Measurers K. Chambers, S. Chastel, L. Denneau,
        H. Flewelling, M. Huber, E. Lilly, E. Magnier, R. Wainscoat, C. Waters,
        R. Weryk.  1.8-m Ritchey-Chretien + CCD.
    
    Orbital elements:
    2016 LH10                                                Earth MOID = 0.0158 AU
    Epoch 2016 July 31.0 TT = JDT 2457600.5                 MPC
    M 341.26187              (2000.0)            P               Q
    n   0.75889791     Peri.  116.71084     +0.98761121     +0.13951191
    a   1.1903659      Node   235.35127     -0.15595222     +0.92340850
    e   0.3158058      Incl.    5.00963     +0.01740680     +0.35756563
    P   1.30           H   25.1           G   0.15           U   9
    Residuals in seconds of arc
    160607 F51  0.1-  0.3+    160608 568  0.0   0.1+    160609 291  0.3-  0.5-
    160607 F51  0.0   0.2-    160608 568  0.1+  0.0     160609 291  0.1+  1.0+
    160607 F51  0.1+  0.1-    160608 568  0.1+  0.0     160609 291  0.2+  0.6-
    
    Ephemeris:
    2016 LH10                a,e,i = 1.19, 0.32, 5                   q = 0.8144
    Date    TT    R. A. (2000) Decl.     Delta      r     Elong.  Phase     V
    2016 05 10    17 10 16.6 -22 57 33   0.2650  1.2482   151.0    23.1    23.8
    ...
    2016 05 25    17 07 00.8 -16 27 54   0.1669  1.1751   165.3    12.6    22.3
    ...
    2016 06 02    16 58 08.8 -09 20 03   0.1230  1.1342   166.5    12.1    21.6
    ...
    2016 06 08    16 46 03.9 -00 21 09   0.09486 1.1030   157.0    21.0    21.2
    2016 06 09    16 43 24.0 +01 36 53   0.09065 1.0978   154.7    23.3    21.2
    2016 06 10    16 40 29.6 +03 45 08   0.08661 1.0926   152.0    25.8    21.2
    ...
    2016 06 16    16 15 50.5 +20 58 39   0.06668 1.0611   131.3    46.0    21.1
    ...
    2016 06 24    14 53 40.0 +54 33 54   0.05778 1.0193    91.2    85.5    21.9
    ...
    2016 07 09    07 35 55.0 +63 15 47   0.09900 0.9443    41.1   135.0    26.2
    
    A. U. Tomatic                (C) Copyright 2016 MPC           M.P.E.C. 2016-L82
    

    Read MPEC 2016-L81 Read MPEC 2016-L83


    MPEC number:

    Enter an MPEC number in one of the following forms:

    • 1997-B01 (the full form)
    • J97B01 (the packed version of the full form)
    • B01 (the abbreviated form)